Date String (YYYY-MM-DD hh:mm:ss) UTC,Instrument flags,absolute air pressure of the measurement (hPa),sample flow rate (lpm),inlet stack bypass flow (lpm),air temperature of the measurement (°C),ambient temperature measured by the external sensor (°C),aerosol sample conditioner tube jacket temperature (°C),OPC LED temperature (°C),internal box temperature (°C),relative humidity of the measurement (%),span deviation,mass concentration of particles derived from Lorenz-Mie calculation of OPC scattering (μg/m³),mass concentration of particles derived from Lorenz-Mie calculation of OPC scattering (μg/m³),mass concentration of particles derived from Lorenz-Mie calculation of OPC scattering (μg/m³)
DateTimeUTC,F1_M11,P_M11,Q1_M11,Q2_M11,T1_M11,T2_M11,T3_M11,T4_M11,T5_M11,U1_M11,ZSPAN_M11,X2_M11,X0_M11,X1_M11
2024-02-04 00:00:00,SystemResetWarning,0816.3,5.00,000.00,020.2,019.6,000.0,028.5,021.8,25.0,0000.0,0001.75,0002.22,0001.66
2024-02-04 00:01:00,SystemResetWarning,0816.4,5.00,000.00,020.2,019.5,000.0,028.5,021.8,25.0,0000.0,0001.66,0002.11,0001.58
2024-02-04 00:02:00,SystemResetWarning,0816.4,5.01,000.00,020.2,019.5,000.0,028.5,021.8,25.0,0000.0,0001.58,0002.02,0001.50
2024-02-04 00:03:00,SystemResetWarning,0816.4,5.00,000.00,020.2,019.5,000.0,028.5,021.8,25.1,0000.0,0001.48,0001.87,0001.42
2024-02-04 00:04:00,SystemResetWarning,0816.3,5.00,000.00,020.2,019.5,000.0,028.5,021.8,25.1,0000.0,0001.39,0001.73,0001.34
2024-02-04 00:05:00,SystemResetWarning,0816.4,5.01,000.00,020.2,019.5,000.0,028.5,021.8,25.1,0000.0,0001.29,0001.60,0001.25
2024-02-04 00:06:00,SystemResetWarning,0816.4,4.99,000.00,020.2,019.5,000.0,028.5,021.8,25.1,0000.0,0001.19,0001.46,0001.15
2024-02-04 00:07:00,SystemResetWarning,0816.4,5.00,000.00,020.2,019.5,000.0,028.5,021.8,25.1,0000.0,0001.12,0001.39,0001.07
2024-02-04 00:08:00,SystemResetWarning,0816.3,4.99,000.00,020.2,019.5,000.0,028.5,021.8,25.1,0000.0,0001.08,0001.35,0001.02
2024-02-04 00:09:00,SystemResetWarning,0816.4,5.01,000.00,020.2,019.5,000.0,028.5,021.8,25.1,0000.0,0001.04,0001.32,0000.96
2024-02-04 00:10:00,SystemResetWarning,0816.4,5.01,000.00,020.2,019.5,000.0,028.5,021.8,25.2,0000.0,0000.98,0001.24,0000.91
2024-02-04 00:11:00,SystemResetWarning,0816.4,5.00,000.00,020.2,019.5,000.0,028.5,021.8,25.2,0000.0,0000.92,0001.16,0000.85
2024-02-04 00:12:00,SystemResetWarning,0816.3,4.99,000.00,020.2,019.5,000.0,028.5,021.8,25.2,0000.0,0000.87,0001.10,0000.80
2024-02-04 00:13:00,SystemResetWarning,0816.4,4.99,000.00,020.2,019.5,000.0,028.5,021.8,25.2,0000.0,0000.85,0001.08,0000.79
2024-02-04 00:14:00,SystemResetWarning,0816.4,5.00,000.00,020.1,019.5,000.0,028.5,021.8,25.2,0000.0,0000.84,0001.06,0000.77
2024-02-04 00:15:00,SystemResetWarning,0816.4,5.00,000.00,020.1,019.5,000.0,028.5,021.8,25.2,0000.0,0000.83,0001.06,0000.77
2024-02-04 00:16:00,SystemResetWarning,0816.4,5.00,000.00,020.1,019.5,000.0,028.5,021.8,25.1,0000.0,0000.83,0001.06,0000.77
2024-02-04 00:17:00,SystemResetWarning,0816.4,5.00,000.00,020.1,019.5,000.0,028.5,021.8,25.1,0000.0,0000.84,0001.08,0000.77
2024-02-04 00:18:00,SystemResetWarning,0816.4,5.00,000.00,020.1,019.5,000.0,028.5,021.8,25.1,0000.0,0000.84,0001.08,0000.77
2024-02-04 00:19:00,SystemResetWarning,0816.5,5.01,000.00,020.1,019.5,000.0,028.5,021.8,25.1,0000.0,0000.81,0001.07,0000.76
2024-02-04 00:20:00,SystemResetWarning,0816.5,4.99,000.00,020.1,019.5,000.0,028.5,021.8,25.1,0000.0,0000.79,0001.00,0000.76
2024-02-04 00:21:00,SystemResetWarning,0816.5,4.99,000.00,020.1,019.5,000.0,028.4,021.8,25.1,0000.0,0000.80,0001.02,0000.77
2024-02-04 00:22:00,SystemResetWarning,0816.5,5.00,000.00,020.1,019.5,000.0,028.4,021.8,25.1,0000.0,0000.80,0001.03,0000.77
2024-02-04 00:23:00,SystemResetWarning,0816.5,5.01,000.00,020.1,019.5,000.0,028.4,021.8,25.1,0000.0,0000.80,0001.04,0000.77
2024-02-04 00:24:00,SystemResetWarning,0816.5,5.00,000.00,020.1,019.4,000.0,028.4,021.8,25.2,0000.0,0000.81,0001.04,0000.77
2024-02-04 00:25:00,SystemResetWarning,0816.5,5.00,000.00,020.1,019.4,000.0,028.4,021.8,25.2,0000.0,0000.80,0001.03,0000.76
2024-02-04 00:26:00,SystemResetWarning,0816.5,5.00,000.00,020.1,019.4,000.0,028.4,021.8,25.2,0000.0,0000.76,0000.98,0000.73
2024-02-04 00:27:00,SystemResetWarning,0816.5,5.01,000.00,020.1,019.4,000.0,028.4,021.7,25.3,0000.0,0000.73,0000.95,0000.69
2024-02-04 00:28:00,SystemResetWarning,0816.5,4.99,000.00,020.1,019.4,000.0,028.4,021.7,25.3,0000.0,0000.69,0000.90,0000.66
2024-02-04 00:29:00,SystemResetWarning,0816.5,4.99,000.00,020.0,019.3,000.0,028.4,021.7,25.4,0000.0,0000.66,0000.85,0000.63
2024-02-04 00:30:00,SystemResetWarning,0816.5,5.00,000.00,020.0,019.3,000.0,028.4,021.7,25.8,0000.0,0000.62,0000.78,0000.60
2024-02-04 00:31:00,SystemResetWarning,0816.5,5.00,000.00,020.0,019.3,000.0,028.4,021.7,26.7,0000.0,0000.58,0000.72,0000.57
2024-02-04 00:32:00,SystemResetWarning,0816.6,5.00,000.00,020.0,019.3,000.0,028.4,021.7,25.9,0000.0,0000.54,0000.66,0000.52
2024-02-04 00:33:00,SystemResetWarning,0816.6,5.00,000.00,020.0,019.3,000.0,028.4,021.7,25.7,0000.0,0000.52,0000.64,0000.51
2024-02-04 00:34:00,SystemResetWarning,0816.6,4.99,000.00,020.0,019.3,000.0,028.4,021.7,25.6,0000.0,0000.56,0001.54,0000.54
2024-02-04 00:35:00,SystemResetWarning,0816.7,5.00,000.00,020.0,019.2,000.0,028.4,021.7,25.5,0000.0,0000.59,0001.97,0000.56
2024-02-04 00:36:00,SystemResetWarning,0816.7,5.00,000.00,020.0,019.2,000.0,028.4,021.6,25.4,0000.0,0000.64,0002.03,0000.61
2024-02-04 00:37:00,SystemResetWarning,0816.7,5.01,000.00,020.0,019.2,000.0,028.4,021.6,25.4,0000.0,0000.76,0002.21,0000.72
2024-02-04 00:38:00,SystemResetWarning,0816.7,5.01,000.00,019.9,019.2,000.0,028.4,021.5,25.4,0000.0,0000.91,0002.42,0000.85
2024-02-04 00:39:00,SystemResetWarning,0816.7,4.99,000.00,019.9,019.2,000.0,028.3,021.5,25.4,0000.0,0001.11,0002.75,0001.01
2024-02-04 00:40:00,SystemResetWarning,0816.7,4.99,000.00,019.9,019.2,000.0,028.3,021.5,25.3,0000.0,0001.35,0003.16,0001.15
2024-02-04 00:41:00,SystemResetWarning,0816.8,5.00,000.00,019.9,019.1,000.0,028.3,021.5,25.4,0000.0,0001.50,0003.40,0001.27
2024-02-04 00:42:00,SystemResetWarning,0816.7,5.00,000.00,019.8,019.1,000.0,028.3,021.4,25.4,0000.0,0001.67,0003.69,0001.40
2024-02-04 00:43:00,SystemResetWarning,0816.8,5.00,000.00,019.8,019.1,000.0,028.3,021.4,25.4,0000.0,0001.83,0003.92,0001.55
2024-02-04 00:44:00,SystemResetWarning,0816.9,5.00,000.00,019.8,019.1,000.0,028.3,021.4,25.4,0000.0,0002.01,0004.21,0001.70
2024-02-04 00:45:00,SystemResetWarning,0816.9,5.00,000.00,019.8,019.0,000.0,028.3,021.3,25.4,0000.0,0002.14,0003.99,0001.82
2024-02-04 00:46:00,SystemResetWarning,0816.9,5.00,000.00,019.8,019.0,000.0,028.2,021.4,25.5,0000.0,0002.27,0003.29,0001.95
2024-02-04 00:47:00,SystemResetWarning,0816.9,4.99,000.00,019.8,019.0,000.0,028.2,021.4,25.4,0000.0,0002.39,0003.43,0002.06
2024-02-04 00:48:00,SystemResetWarning,0816.9,5.00,000.00,019.8,019.1,000.0,028.2,021.4,25.4,0000.0,0002.45,0003.48,0002.12
2024-02-04 00:49:00,SystemResetWarning,0816.9,4.99,000.00,019.7,019.1,000.0,028.2,021.4,25.4,0000.0,0002.49,0003.53,0002.15
2024-02-04 00:50:00,SystemResetWarning,0816.9,5.01,000.00,019.7,019.0,000.0,028.2,021.3,25.5,0000.0,0002.44,0003.39,0002.12
2024-02-04 00:51:00,SystemResetWarning,0816.9,5.01,000.00,019.7,019.0,000.0,028.2,021.2,25.5,0000.0,0002.30,0003.08,0002.06
2024-02-04 00:52:00,SystemResetWarning,0816.9,5.00,000.00,019.7,019.0,000.0,028.1,021.2,25.5,0000.0,0002.22,0002.91,0002.03
2024-02-04 00:53:00,SystemResetWarning,0816.9,4.99,000.00,019.6,019.0,000.0,028.1,021.1,25.5,0000.0,0002.17,0002.81,0002.00
2024-02-04 00:54:00,SystemResetWarning,0816.9,4.99,000.00,019.6,018.9,000.0,028.1,021.1,25.6,0000.0,0002.11,0002.67,0001.96
2024-02-04 00:55:00,SystemResetWarning,0817.0,5.00,000.00,019.6,018.9,000.0,028.1,021.1,25.6,0000.0,0002.01,0002.47,0001.88
2024-02-04 00:56:00,SystemResetWarning,0816.9,5.01,000.00,019.6,018.9,000.0,028.0,021.1,25.7,0000.0,0001.91,0002.36,0001.80
2024-02-04 00:57:00,SystemResetWarning,0816.9,5.00,000.00,019.5,018.9,000.0,028.0,021.1,25.7,0000.0,0001.80,0002.20,0001.70
2024-02-04 00:58:00,SystemResetWarning,0816.9,4.99,000.00,019.5,018.9,000.0,028.0,021.1,25.7,0000.0,0001.72,0002.09,0001.62
2024-02-04 00:59:00,SystemResetWarning,0816.9,4.99,000.00,019.5,018.9,000.0,028.0,021.1,25.7,0000.0,0001.63,0002.00,0001.53
